TimeMST,TemperatureF,Dew PointF,Humidity,Sea Level PressureIn,VisibilityMPH,Wind Direction,Wind SpeedMPH,Gust SpeedMPH,PrecipitationIn,Events,Conditions,WindDirDegrees,DateUTC
12:16 AM,30.9,19.0,61,29.77,10.0,SSE,4.6,-,N/A,,Overcast,160,2013-02-18 07:16:00
12:36 AM,29.8,19.4,65,29.78,10.0,SE,5.8,-,N/A,,Overcast,140,2013-02-18 07:36:00
12:56 AM,29.5,18.9,65,29.79,10.0,SE,8.1,-,N/A,,Overcast,140,2013-02-18 07:56:00
1:16 AM,29.7,19.2,65,29.80,10.0,SSE,3.5,-,N/A,,Mostly Cloudy,160,2013-02-18 08:16:00
1:36 AM,28.4,18.9,67,29.81,10.0,South,5.8,-,N/A,,Overcast,190,2013-02-18 08:36:00
1:56 AM,28.0,19.0,69,29.82,10.0,SSE,3.5,-,N/A,,Scattered Clouds,160,2013-02-18 08:56:00
2:16 AM,28.2,19.0,68,29.83,10.0,South,5.8,-,N/A,,Mostly Cloudy,180,2013-02-18 09:16:00
2:36 AM,29.3,19.4,67,29.83,10.0,South,4.6,-,N/A,,Overcast,180,2013-02-18 09:36:00
2:56 AM,29.3,19.4,67,29.84,10.0,South,3.5,-,N/A,,Overcast,170,2013-02-18 09:56:00
3:16 AM,29.1,19.4,67,29.83,10.0,South,4.6,-,N/A,,Mostly Cloudy,170,2013-02-18 10:16:00
3:36 AM,28.9,19.4,68,29.84,10.0,South,4.6,-,N/A,,Scattered Clouds,170,2013-02-18 10:36:00
3:56 AM,28.2,19.2,69,29.84,10.0,Calm,Calm,-,N/A,,Clear,0,2013-02-18 10:56:00
4:16 AM,26.4,18.3,71,29.85,10.0,South,3.5,-,N/A,,Clear,180,2013-02-18 11:16:00
4:36 AM,26.1,18.3,73,29.86,10.0,SW,4.6,-,N/A,,Mostly Cloudy,230,2013-02-18 11:36:00
4:56 AM,25.7,18.1,73,29.87,10.0,Calm,Calm,-,N/A,,Overcast,0,2013-02-18 11:56:00
5:16 AM,24.8,17.8,75,29.88,10.0,Calm,Calm,-,N/A,,Scattered Clouds,0,2013-02-18 12:16:00
5:36 AM,25.3,18.1,74,29.88,10.0,South,3.5,-,N/A,,Mostly Cloudy,190,2013-02-18 12:36:00
5:56 AM,25.2,17.8,74,29.90,10.0,South,3.5,-,N/A,,Scattered Clouds,180,2013-02-18 12:56:00
6:16 AM,23.9,16.9,75,29.91,10.0,Calm,Calm,-,N/A,,Clear,0,2013-02-18 13:16:00
6:36 AM,23.9,17.4,76,29.91,10.0,SSE,4.6,-,N/A,,Clear,150,2013-02-18 13:36:00
6:56 AM,24.1,17.8,77,29.92,10.0,Calm,Calm,-,N/A,,Scattered Clouds,0,2013-02-18 13:56:00
7:16 AM,20.5,15.8,82,29.94,10.0,Calm,Calm,-,N/A,,Clear,0,2013-02-18 14:16:00
7:36 AM,24.6,19.4,81,29.95,10.0,Calm,Calm,-,N/A,,Clear,0,2013-02-18 14:36:00
7:56 AM,28.9,20.8,72,29.96,10.0,South,3.5,-,N/A,,Clear,190,2013-02-18 14:56:00
8:16 AM,30.7,21.2,68,29.97,10.0,South,4.6,-,N/A,,Clear,180,2013-02-18 15:16:00
8:36 AM,31.8,21.0,64,29.97,10.0,SSE,6.9,-,N/A,,Clear,160,2013-02-18 15:36:00
8:56 AM,32.9,20.3,60,29.97,10.0,SSE,6.9,-,N/A,,Clear,150,2013-02-18 15:56:00
9:16 AM,34.5,19.2,54,29.98,10.0,SSE,6.9,-,N/A,,Clear,150,2013-02-18 16:16:00
9:36 AM,35.1,12.9,40,29.97,10.0,SSW,4.6,-,N/A,,Clear,210,2013-02-18 16:36:00
9:56 AM,36.1,11.5,36,29.97,10.0,SE,4.6,-,N/A,,Clear,130,2013-02-18 16:56:00
10:16 AM,36.7,10.4,34,29.97,10.0,SW,4.6,-,N/A,,Clear,220,2013-02-18 17:16:00
10:36 AM,37.6,10.6,33,29.97,10.0,SE,3.5,-,N/A,,Clear,130,2013-02-18 17:36:00
10:56 AM,37.4,8.6,30,29.97,10.0,East,5.8,-,N/A,,Clear,100,2013-02-18 17:56:00
11:16 AM,39.0,7.9,28,29.96,10.0,Calm,Calm,-,N/A,,Scattered Clouds,0,2013-02-18 18:16:00
11:36 AM,39.7,1.6,20,29.96,10.0,SSE,8.1,-,N/A,,Mostly Cloudy,160,2013-02-18 18:36:00
11:56 AM,41.0,-2.6,16,29.94,10.0,South,8.1,-,N/A,,Overcast,190,2013-02-18 18:56:00
12:16 PM,40.5,-0.6,18,29.94,10.0,West,16.1,20.7,N/A,,Overcast,270,2013-02-18 19:16:00
12:36 PM,39.4,-0.8,18,29.94,10.0,WSW,12.7,21.9,N/A,,Overcast,250,2013-02-18 19:36:00
12:56 PM,40.1,-2.0,17,29.94,10.0,NW,13.8,20.7,N/A,,Overcast,310,2013-02-18 19:56:00
1:16 PM,39.9,-3.1,16,29.93,10.0,WNW,15.0,23.0,N/A,,Overcast,300,2013-02-18 20:16:00
1:36 PM,43.3,-3.1,14,29.93,10.0,WNW,24.2,29.9,N/A,,Overcast,290,2013-02-18 20:36:00
1:56 PM,43.7,-2.4,15,29.93,10.0,West,19.6,26.5,N/A,,Overcast,260,2013-02-18 20:56:00
2:16 PM,42.6,-2.6,15,29.93,10.0,NW,13.8,27.6,N/A,,Overcast,310,2013-02-18 21:16:00
2:36 PM,43.2,-2.2,15,29.94,10.0,WNW,12.7,17.3,N/A,,Mostly Cloudy,300,2013-02-18 21:36:00
2:56 PM,42.3,-2.4,15,29.94,10.0,West,11.5,21.9,N/A,,Scattered Clouds,280,2013-02-18 21:56:00
3:16 PM,42.6,-2.7,15,29.95,10.0,WNW,10.4,19.6,N/A,,Clear,290,2013-02-18 22:16:00
3:36 PM,42.1,-2.4,15,29.96,10.0,WNW,6.9,21.9,N/A,,Clear,290,2013-02-18 22:36:00
4:16 PM,41.9,-3.1,15,29.96,10.0,North,6.9,-,N/A,,Clear,350,2013-02-18 23:16:00
4:36 PM,39.9,5.0,23,29.96,10.0,NE,6.9,-,N/A,,Clear,50,2013-02-18 23:36:00
4:56 PM,39.4,3.6,22,29.96,10.0,NE,3.5,-,N/A,,Clear,50,2013-02-18 23:56:00
5:16 PM,37.9,2.1,22,29.97,10.0,East,4.6,-,N/A,,Clear,80,2013-02-19 00:16:00
5:36 PM,36.1,1.4,23,29.98,10.0,East,4.6,-,N/A,,Clear,100,2013-02-19 00:36:00
5:56 PM,34.3,2.3,26,29.99,10.0,East,6.9,-,N/A,,Clear,80,2013-02-19 00:56:00
6:16 PM,32.0,3.0,29,30.00,10.0,Calm,Calm,-,N/A,,Clear,0,2013-02-19 01:16:00
6:36 PM,28.2,3.6,35,30.01,10.0,SE,9.2,-,N/A,,Clear,130,2013-02-19 01:36:00
6:56 PM,30.2,3.2,32,30.02,10.0,SE,4.6,-,N/A,,Clear,130,2013-02-19 01:56:00
7:16 PM,29.8,3.2,32,30.02,10.0,ESE,5.8,-,N/A,,Clear,110,2013-02-19 02:16:00
7:36 PM,27.1,2.8,35,30.03,10.0,SE,4.6,-,N/A,,Clear,130,2013-02-19 02:36:00
7:56 PM,26.2,4.3,39,30.03,10.0,Calm,Calm,-,N/A,,Clear,0,2013-02-19 02:56:00
8:16 PM,24.8,5.7,44,30.03,10.0,East,6.9,-,N/A,,Clear,100,2013-02-19 03:16:00
8:36 PM,25.3,7.0,46,30.05,10.0,SSW,5.8,-,N/A,,Clear,200,2013-02-19 03:36:00
8:56 PM,26.2,5.9,42,30.06,10.0,SSW,4.6,-,N/A,,Clear,200,2013-02-19 03:56:00
9:16 PM,24.3,6.8,47,30.06,10.0,Calm,Calm,-,N/A,,Clear,0,2013-02-19 04:16:00
9:36 PM,21.6,7.2,54,30.06,10.0,Calm,Calm,-,N/A,,Clear,0,2013-02-19 04:36:00
9:56 PM,23.0,7.5,52,30.07,10.0,SSE,3.5,-,N/A,,Clear,160,2013-02-19 04:56:00
10:16 PM,22.6,6.8,51,30.06,10.0,SE,9.2,-,N/A,,Clear,140,2013-02-19 05:16:00
10:36 PM,25.2,7.3,47,30.06,10.0,SE,8.1,-,N/A,,Clear,130,2013-02-19 05:36:00
10:56 PM,24.8,7.2,47,30.06,10.0,ESE,5.8,-,N/A,,Clear,120,2013-02-19 05:56:00
11:16 PM,21.6,7.7,55,30.06,10.0,Calm,Calm,-,N/A,,Clear,0,2013-02-19 06:16:00
11:36 PM,19.8,7.2,58,30.06,10.0,Calm,Calm,-,N/A,,Clear,0,2013-02-19 06:36:00
11:56 PM,17.6,7.2,64,30.07,10.0,Calm,Calm,-,N/A,,Clear,0,2013-02-19 06:56:00